Location: Venise Bay
(45.0825°N, 73.1481°W)
Time: 10:50:26
(UTC-04:00)

ISS - Visible Passes

Search period start: 20 June 2021 00:00
Search period end: 30 June 2021 00:00
Orbit: 417 x 422 km, 51.6° (Epoch: 20 June)

Date Brightness Start Highest point End Pass type
(mag) Time Alt. Az. Time Alt. Az. Time Alt. Az.
25 Jun -1.1 04:26:07 10° SSE 04:27:19 11° SE 04:28:31 10° ESE visible
27 Jun -2.4 04:25:51 10° SSW 04:28:49 29° SE 04:31:47 10° ENE visible
28 Jun -1.8 03:39:37 13° S 03:41:29 19° SE 03:43:55 10° E visible
29 Jun -1.3 02:53:55 11° SE 02:54:12 12° SE 02:55:26 10° ESE visible
29 Jun -3.7 04:27:08 10° SW 04:30:30 76° SSE 04:33:51 10° ENE visible
